Flag for Canada Weather past 2 weeks in Selkirk, Manitoba, Canada

Now
78 °F

Warm.


Feels Like: 79 °F
Forecast: N/A
Wind: 10 mph from Southwest

Location: Winnipeg The Forks

Current Time: Aug 31, 2015 at 5:14:16 PM

Latest Report: Aug 31, 2015 at 4:00 PM


Visibility: N/A

Pressure: 29.69 "Hg

Humidity: 42%

Dew point: 53 °F

Location of SelkirkLocation

Historic Weather in Selkirk — Graph

°F

Selkirk temperature yesterday

Maximum temperature yesterday: 86 °F (at 5:00 PM)
Minimum temperature yesterday: 65 °F (at 7:00 AM)
Average temperature yesterday: 75 °F

Past Weeks' High & Low Weather Summary

 TemperatureHumidityPressure
High86 °F (Aug 30, 5:00 PM)96% (Aug 30, 7:00 AM)30.20 "Hg (Aug 30, 7:00 AM)
Low49 °F (Aug 26, 7:00 AM)33% (Aug 20, 5:00 PM)29.36 "Hg (Aug 22, 9:00 PM)
Average65 °F69%29.85 "Hg
* Reported Aug 16 4:00 PM — Aug 31 4:00 PM, Selkirk, Weather by CustomWeather, © 2015

Note: Actual official high and low records may vary slightly from our data, if they occured in-between our weather recording intervals... More about our weather records

Advertising

Selkirk weather history for previous 24 hours

 ConditionsComfort  
Time TempWeatherWind HumidityBarometerVisibility
4:00 PM
Mon, Aug 31
78 °FWarm.10 mph42%29.69 "HgN/A
2:00 PM72 °FMild.3 mph68%29.70 "HgN/A
1:00 PM74 °FMild.3 mph62%29.68 "HgN/A
12:00 PM71 °FMild.7 mph71%29.70 "HgN/A
11:00 AM71 °FMild.2 mph76%29.66 "HgN/A
10:00 AM69 °FMild.5 mph82%29.62 "HgN/A
9:00 AM68 °FMild.2 mph84%29.65 "HgN/A
7:00 AM69 °FMild.5 mph87%29.56 "HgN/A
6:00 AM70 °FMild.1 mph87%29.60 "HgN/A
5:00 AM71 °FMild.2 mph89%29.58 "HgN/A
3:00 AM73 °FMild.5 mph85%29.57 "HgN/A
2:00 AM72 °FMild.5 mph86%29.57 "HgN/A
10:00 PM
Sun, Aug 30
79 °FWarm.6 mph68%29.57 "HgN/A
9:00 PM79 °FWarm.2 mph69%29.57 "HgN/A
8:00 PM81 °FWarm.1 mph66%29.57 "HgN/A
6:00 PM85 °FWarm.2 mph57%29.59 "HgN/A
5:00 PM86 °FWarm.1 mph57%29.60 "HgN/A
Weather by CustomWeather, © 2015

See weather overviewHow to use our weather pages